Regional Weather Roundup
Issued by NWS

Home | Current Version | Previous Version | Graphics & Text | Print | Product List | Glossary On
Versions: 1 2 3 4 5 6 7 8 9 10 11 12 13 14 15 16 17 18 19 20 21 22 23 24 25 26 27 28 29 30 31 32 33 34 35 36 37 38 39 40 41 42 43 44 45 46 47 48 49 50
000
ASUS45 KABQ 282301
RWRNM
WEATHER ROUNDUP FOR NEW MEXICO
NATIONAL WEATHER SERVICE ALBUQUERQUE NM
500 PM MDT THU AUG 28 2014

NOTE: "FAIR" MEANS FEW OR NO CLOUDS BELOW 12,000 FEET AGL WITH NO
       SIGNIFICANT WEATHER OR OBSTRUCTIONS TO VISION.

      THIS PRODUCT IS RELEASED AS TWO VERSIONS.  ONE VERSION NEAR
      THE TOP OF THE HOUR CONTAINING PRELIMINARY DATA FROM ALBUQUERQUE
      AND OTHER STATIONS.  A FINAL VERSION WITH ADDITIONAL DATA IS
      ISSUED ABOUT 10 MINUTES AFTER THE HOUR.

NMZ501-503-504-510>518-290000-
NORTHWEST PLATEAU/NORTHCENTRAL MOUNTAINS

CITY           SKY/WX    TMP DP  RH WIND       PRES   REMARKS
FARMINGTON     SUNNY     81  41  24 W15       30.11F
LOS ALAMOS     PTSUNNY   71  40  32 NE3       30.22S
SANTA FE       PTSUNNY   76  41  28 N9        30.14F
ANGEL FIRE     CLOUDY    60  39  45 W17       30.29F

$$
NMZ402-403-502-505>509-290000-
WESTCENTRAL MOUNTAINS/SOUTHWEST MOUNTAINS

CITY           SKY/WX    TMP DP  RH WIND       PRES   REMARKS
GALLUP         SUNNY     80  40  23 N10       30.21F
SILVER CITY    SUNNY     86  39  19 NW7G21    30.12F

$$
NMZ407-409-411-412-290000-
SOUTHERN DESERTS

CITY           SKY/WX    TMP DP  RH WIND       PRES   REMARKS
LORDSBURG      MOCLDY    88  43  20 NW6G16    30.03F
DEMING         SUNNY     91  44  19 SW12      30.01F
LAS CRUCES     MOSUNNY   89  41  18 NE7       30.04F
HOLLOMAN AFB   SUNNY     90  41  17 NW8G17    30.00F
ALAMOGORDO     SUNNY     90  39  17 N7G17     30.02F
T OR C         MOSUNNY   86  45  23 S12       30.05F

$$
NMZ519>523-290000-
CENTRAL VALLEYS/CENTRAL HIGHLANDS

CITY           SKY/WX    TMP DP  RH WIND       PRES   REMARKS
ALBUQUERQUE    MOSUNNY   82  38  20 NW15      30.11F
DOUBLE EAGLE   MOSUNNY   81  41  24 NW15G23   30.15F
CLINES CORNERS MOSUNNY   72  39  30 W18G29    30.19S
BELEN          FAIR      84  40  20 NW14      30.09F
SOCORRO        FAIR      86  44  23 SW8       30.06F

$$
NMZ524>526-539-540-290000-
SOUTHCENTRAL MOUNTAINS

CITY           SKY/WX    TMP DP  RH WIND       PRES   REMARKS
RUIDOSO        NOT AVBL

$$
NMZ527>531-290000-
NORTHEAST HIGHLANDS/NORTHEAST PLAINS

CITY           SKY/WX    TMP DP  RH WIND       PRES   REMARKS
LAS VEGAS      MOSUNNY   76  40  27 N12       30.17S
RATON          PTSUNNY   73  42  32 NE9       30.14S
CLAYTON        CLOUDY    64  55  72 CALM      30.08F

$$
NMZ532>537-290000-
EASTCENTRAL PLAINS

CITY           SKY/WX    TMP DP  RH WIND       PRES   REMARKS
TUCUMCARI      SUNNY     92  27   9 W12       29.92F
CANNON AFB     SUNNY     89  43  20 W20G25    29.96F
CLOVIS AIRPORT   N/A     90  39  17 SW17G26   29.98F

$$
NMZ028-029-538-290000-
SOUTHEAST PLAINS

CITY           SKY/WX    TMP DP  RH WIND       PRES   REMARKS
ROSWELL        MOSUNNY   92  48  22 SW10      29.93F
CARLSBAD       MOSUNNY   93  51  23 VRB3      29.89F
HOBBS          MOSUNNY   93  46  20 SW9       29.93F


$$



USA.gov is the U.S. government's official web portal to all federal, state and local government web resources and services.